1483678800.65,53932,4.5,72162.3,-29.19,-50.89,-51.55,0,*6D
1483678801.9,53933,4.5,72176.0,-29.19,-51.11,-51.55,0,*6C
1483678803.14,53934,4.5,72182.5,-29.19,-51.05,-51.33,0,*6E
1483678804.37,53935,4.5,72184.8,-29.19,-51.11,-51.69,0,*65
1483678805.62,53936,4.5,72186.5,-29.19,-51.25,-51.77,0,*6E
1483678806.92,53937,4.44,72164.5,-29.17,-51.55,-51.91,0,*6E
1483678808.22,53938,4.5,72172.0,-29.17,-51.25,-51.55,0,*6E
1483678809.47,53939,4.44,72172.8,-29.19,-51.33,-51.69,0,*69
1483678810.72,53940,4.5,72182.3,-29.19,-51.11,-51.55,0,*68
1483678811.96,53941,4.5,72186.8,-29.19,-51.05,-51.55,0,*6C
1483678813.2,53942,4.44,72180.0,-29.19,-50.89,-51.33,0,*6A
1483678814.47,53943,4.44,72176.5,-29.19,-50.83,-51.47,0,*62
1483678815.7,53944,4.44,72170.8,-29.19,-51.11,-51.77,0,*6C
1483678816.95,53945,4.5,72164.0,-29.19,-51.25,-51.69,0,*65
1483678818.25,53946,4.44,72170.0,-29.17,-51.33,-51.91,0,*68
1483678819.52,53947,4.5,72162.5,-29.17,-51.33,-51.77,0,*61
1483678820.83,53948,4.5,72170.3,-29.17,-51.47,-51.91,0,*65
1483678822.11,53949,4.5,72172.8,-29.19,-51.47,-51.91,0,*6A
1483678823.36,53950,4.44,72198.8,-29.19,-51.33,-51.77,0,*69
1483678824.63,53951,4.44,72140.8,-29.19,-51.47,-51.91,0,*63
1483678825.88,53952,4.44,72136.3,-29.19,-51.33,-51.69,0,*64
1483678827.15,53953,4.5,72156.3,-29.19,-51.33,-51.55,0,*6A
1483678828.39,53954,4.5,72146.8,-29.19,-51.55,-51.77,0,*6D
1483678829.67,53955,4.44,72170.0,-29.19,-51.47,-51.91,0,*67
1483678830.94,53956,4.5,72150.8,-29.19,-51.55,-51.99,0,*6F
1483678832.19,53957,4.5,72138.0,-29.19,-51.55,-51.77,0,*6E
1483678833.46,53958,4.5,72194.3,-29.19,-51.55,-51.91,0,*69
1483678834.71,53959,4.5,72174.3,-29.19,-51.47,-51.77,0,*63
1483678835.99,53960,4.44,72176.0,-29.19,-51.47,-51.91,0,*61
1483678837.26,53961,4.44,72172.3,-29.21,-51.63,-52.07,0,*61
1483678838.53,53962,4.44,72174.5,-29.19,-51.55,-51.99,0,*68
1483678839.78,53963,4.44,72168.8,-29.19,-51.47,-52.07,0,*6E
1483678841.03,53964,4.5,72174.5,-29.19,-51.77,-51.99,0,*6E
1483678842.3,53965,4.44,72136.0,-29.19,-51.55,-51.99,0,*6F
1483678843.58,53966,4.5,72164.5,-29.17,-51.69,-51.91,0,*65
1483678844.86,53967,4.5,72148.8,-29.17,-51.77,-52.21,0,*63
1483678846.17,53968,4.44,72136.5,-29.17,-51.91,-51.99,0,*64
1483678847.39,53969,4.44,72144.5,-29.19,-51.77,-52.07,0,*67
1483678848.64,53970,4.44,72152.8,-29.17,-51.77,-52.07,0,*61
1483678849.91,53971,4.5,72164.8,-29.17,-51.77,-52.21,0,*64
1483678851.18,53972,4.44,72156.3,-29.19,-51.91,-52.21,0,*61
1483678852.43,53973,4.5,72170.0,-29.21,-51.85,-52.35,0,*6B
1483678853.67,53974,4.44,72148.8,-29.19,-51.69,-52.21,0,*60
1483678854.94,53975,4.5,72140.8,-29.19,-51.99,-52.21,0,*6E
1483678856.21,53976,4.44,72138.3,-29.21,-51.99,-52.35,0,*63
1483678857.47,53977,4.5,72148.0,-29.21,-51.77,-52.29,0,*6F
1483678858.72,53978,4.5,72156.0,-29.19,-51.69,-51.99,0,*6C
1483678859.99,53979,4.44,72148.3,-29.21,-51.85,-52.13,0,*65
1483678861.25,53980,4.44,72130.3,-29.21,-51.99,-52.35,0,*6A
1483678862.47,53981,4.44,72132.0,-29.19,-51.77,-52.07,0,*61
1483678863.74,53982,4.44,72140.3,-29.19,-51.91,-52.29,0,*66
1483678865.03,53983,4.44,72120.3,-29.21,-51.99,-52.29,0,*64
1483678866.29,53984,4.44,72126.0,-29.19,-51.55,-52.21,0,*60
1483678867.54,53985,4.44,72138.0,-29.21,-51.77,-52.35,0,*6F
1483678868.78,53986,4.5,72134.5,-29.23,-51.85,-52.29,0,*6E
1483678870.03,53987,4.44,72136.3,-29.23,-51.63,-51.85,0,*62
1483678871.32,53988,4.5,72140.5,-29.21,-51.63,-52.13,0,*63
1483678872.62,53989,4.5,72152.8,-29.21,-51.63,-51.99,0,*63
1483678873.89,53990,4.44,72154.5,-29.21,-51.63,-52.07,0,*6F
1483678875.19,53991,4.44,72146.8,-29.21,-51.63,-51.99,0,*6A
1483678876.46,53992,4.44,72156.0,-29.21,-51.77,-51.99,0,*6C
1483678877.74,53993,4.5,72150.0,-29.21,-51.41,-51.99,0,*68
1483678878.98,53994,4.44,72154.8,-29.23,-51.63,-52.07,0,*69
1483678880.23,53995,4.5,72158.5,-29.23,-51.63,-51.85,0,*61
1483678881.52,53996,4.5,72164.0,-29.21,-51.55,-52.13,0,*69
1483678882.81,53997,4.5,72168.8,-29.21,-51.63,-52.13,0,*6D
1483678884.1,53998,4.44,72170.5,-29.21,-51.55,-51.99,0,*66
1483678885.35,53999,4.44,72156.8,-29.21,-51.19,-51.77,0,*6F
1483678886.65,54000,4.44,72158.0,-29.21,-51.63,-51.99,0,*6C
1483678887.92,54001,4.5,72152.3,-29.21,-51.63,-52.07,0,*69
1483678889.14,54002,4.44,72144.5,-29.23,-51.77,-52.07,0,*6D
1483678890.38,54003,4.44,72132.5,-29.23,-51.85,-52.13,0,*64
1483678891.62,54004,4.44,72138.5,-29.23,-51.77,-52.13,0,*6E
1483678892.86,54005,4.44,72138.3,-29.23,-51.55,-51.85,0,*63
1483678894.08,54006,4.5,72140.3,-29.23,-51.41,-51.77,0,*68
1483678895.32,54007,4.44,72154.0,-29.23,-51.33,-51.77,0,*6C
1483678896.55,54008,4.44,72148.5,-29.23,-51.19,-51.77,0,*6B
1483678897.82,54009,4.44,72152.5,-29.27,-51.63,-52.13,0,*62
1483678899.09,54010,4.5,72152.8,-29.23,-51.55,-51.99,0,*6A
1483678900.31,54011,4.44,72152.3,-29.23,-51.41,-51.77,0,*6E
1483678901.55,54012,4.44,72164.8,-29.23,-51.55,-51.85,0,*65
1483678902.8,54013,4.44,72158.0,-29.23,-51.77,-51.99,0,*69
1483678904.08,54014,4.5,72144.3,-29.23,-51.63,-51.99,0,*6B
1483678905.31,54015,4.5,72142.3,-29.23,-51.85,-52.13,0,*63
1483678906.56,54016,4.44,72134.5,-29.23,-51.55,-51.77,0,*6C
1483678907.78,54017,4.44,72148.0,-29.23,-51.41,-51.77,0,*68
1483678908.99,54018,4.44,72146.3,-29.23,-51.41,-51.85,0,*6A
1483678910.24,54019,4.44,72146.3,-29.23,-51.55,-51.77,0,*63
1483678911.52,54020,4.5,72164.8,-29.27,-51.47,-51.91,0,*66
1483678912.79,54021,4.44,72136.0,-29.23,-51.55,-51.99,0,*68
1483678914.04,54022,4.44,72154.8,-29.21,-51.77,-52.07,0,*6D
1483678915.29,54023,4.44,72158.0,-29.27,-51.69,-52.21,0,*61
1483678916.52,54024,4.5,72146.5,-29.23,-51.85,-52.13,0,*61
1483678917.8,54025,4.44,72138.8,-29.27,-51.91,-52.21,0,*60
1483678919.06,54026,4.44,72126.8,-29.23,-51.99,-52.13,0,*6E
1483678920.34,54027,4.44,72114.8,-29.23,-51.63,-51.99,0,*6B
1483678921.56,54028,4.5,72124.3,-29.27,-51.41,-51.77,0,*60
1483678922.84,54029,4.44,72126.0,-29.23,-51.63,-51.99,0,*65
1483678924.06,54030,4.5,72148.5,-29.23,-51.19,-51.77,0,*60
1483678925.33,54031,4.44,72150.0,-29.23,-51.33,-51.99,0,*69
1483678926.58,54032,4.5,72160.0,-29.27,-51.69,-52.21,0,*61
1483678927.8,54033,4.44,72158.8,-29.23,-51.19,-51.77,0,*63
1483678929.07,54034,4.44,72132.3,-29.23,-51.33,-51.63,0,*69
1483678930.31,54035,4.44,72146.3,-29.23,-51.55,-51.85,0,*60
1483678931.55,54036,4.44,72136.0,-29.23,-51.33,-51.77,0,*6E
1483678932.78,54037,4.44,72146.0,-29.23,-51.19,-51.77,0,*67
1483678934.03,54038,4.44,72146.0,-29.23,-51.19,-51.63,0,*6D
1483678935.25,54039,4.44,72156.3,-29.23,-51.19,-51.77,0,*69
1483678936.5,54040,4.44,72162.3,-29.23,-51.41,-51.99,0,*6A
1483678937.75,54041,4.44,72138.3,-29.23,-51.77,-51.99,0,*6E
1483678939.03,54042,4.44,72152.0,-29.23,-51.63,-51.99,0,*68
1483678940.27,54043,4.5,72136.3,-29.23,-51.55,-52.07,0,*68
1483678941.51,54044,4.44,72144.3,-29.23,-51.63,-52.07,0,*6A
1483678942.74,54045,4.44,72152.8,-29.23,-51.19,-51.77,0,*62
1483678943.99,54046,4.44,72158.5,-29.23,-51.41,-51.91,0,*64
1483678945.26,54047,4.5,72148.8,-29.23,-51.55,-51.99,0,*68
1483678946.53,54048,4.44,72136.3,-29.23,-51.63,-51.99,0,*62
1483678947.77,54049,4.44,72138.5,-29.23,-51.77,-52.13,0,*67
1483678949.05,54050,4.44,72128.3,-29.23,-51.63,-51.99,0,*6B
1483678950.3,54051,4.44,72124.8,-29.27,-51.47,-52.07,0,*6C
1483678951.57,54052,4.5,72152.0,-29.23,-51.55,-51.99,0,*6C
1483678952.81,54053,4.44,72140.0,-29.27,-51.85,-52.13,0,*65
1483678954.1,54054,4.5,72138.8,-29.27,-51.63,-51.91,0,*63
1483678955.32,54055,4.5,72142.5,-29.23,-51.41,-51.85,0,*63
1483678956.57,54056,4.44,72130.8,-29.27,-51.47,-51.85,0,*62
1483678957.84,54057,4.44,72146.3,-29.23,-51.33,-51.63,0,*6C
1483678959.09,54058,4.44,72140.5,-29.27,-51.25,-51.85,0,*68
1483678960.32,54059,4.44,72132.3,-29.27,-51.69,-52.07,0,*68
1483678961.6,54060,4.44,72124.3,-29.27,-51.63,-51.91,0,*64
1483678962.84,54061,4.44,72138.8,-29.23,-51.33,-51.85,0,*61
1483678964.08,54062,4.44,72148.0,-29.23,-51.33,-51.77,0,*6F
1483678965.33,54063,4.44,72146.8,-29.23,-51.41,-51.99,0,*6B
1483678966.58,54064,4.44,72152.3,-29.27,-51.47,-51.85,0,*63
1483678967.83,54065,4.44,72154.8,-29.23,-51.41,-51.99,0,*6D
1483678969.11,54066,4.44,72166.0,-29.27,-51.25,-51.91,0,*60
1483678970.35,54067,4.44,72178.8,-29.23,-51.33,-51.85,0,*67
1483678971.6,54068,4.44,72164.0,-29.27,-51.47,-52.07,0,*66
1483678972.86,54069,4.44,72170.0,-29.27,-51.25,-51.69,0,*68
1483678974.11,54070,4.44,72172.3,-29.27,-51.47,-51.85,0,*66
1483678975.36,54071,4.44,72178.8,-29.27,-51.63,-52.07,0,*68
1483678976.61,54072,4.44,72166.3,-29.27,-51.63,-52.07,0,*6B
1483678977.86,54073,4.5,72190.5,-29.23,-51.63,-52.07,0,*6E
1483678979.11,54074,4.44,72180.3,-29.27,-51.69,-52.13,0,*62
1483678980.37,54075,4.5,72168.5,-29.23,-51.99,-52.29,0,*61
1483678981.67,54076,4.44,72174.3,-29.29,-51.91,-52.13,0,*69
1483678982.91,54077,4.44,72170.3,-29.27,-51.85,-52.21,0,*62
1483678984.2,54078,4.5,72176.0,-29.29,-51.69,-51.91,0,*69
1483678985.45,54079,4.44,72180.0,-29.29,-51.69,-52.07,0,*64
1483678986.7,54080,4.44,72186.3,-29.29,-51.85,-52.07,0,*60
1483678988.0,54081,4.44,72180.8,-29.29,-51.63,-52.21,0,*6D
1483678989.25,54082,4.5,72190.0,-29.31,-51.85,-52.21,0,*6F
1483678990.53,54083,4.44,72196.5,-29.29,-51.47,-51.85,0,*64
1483678991.81,54084,4.44,72196.8,-29.29,-51.25,-51.69,0,*65
1483678993.09,54085,4.44,72190.8,-29.31,-51.47,-51.91,0,*6E
1483678994.37,54086,4.5,72188.0,-29.29,-51.69,-52.13,0,*61
1483678995.66,54087,4.44,72178.3,-29.29,-51.91,-52.13,0,*67
1483678996.91,54088,4.44,72166.0,-29.29,-51.85,-52.07,0,*68
1483678998.17,54089,4.44,72174.8,-29.29,-51.69,-52.07,0,*6B
1483678999.43,54090,4.44,72150.5,-29.29,-51.85,-52.13,0,*64
1483679000.73,54091,4.44,72146.5,-29.29,-51.91,-52.13,0,*60
1483679001.99,54092,4.44,72140.0,-29.29,-51.69,-52.07,0,*61
1483679003.26,54093,4.44,72128.3,-29.31,-51.63,-52.13,0,*66
1483679004.57,54094,4.44,72130.5,-29.29,-51.25,-51.91,0,*63
1483679005.85,54095,4.44,72154.0,-29.29,-51.19,-51.63,0,*60
1483679007.1,54096,4.5,72148.0,-29.29,-50.97,-51.69,0,*6E
1483679008.38,54097,4.5,72146.5,-29.29,-50.67,-51.47,0,*6C
1483679009.62,54098,4.44,72138.0,-29.29,-50.97,-51.85,0,*62
1483679010.85,54099,4.44,72142.0,-29.31,-50.97,-51.69,0,*68
1483679012.1,54100,4.44,72136.8,-29.29,-50.97,-51.69,0,*60
1483679013.31,54101,4.44,72104.8,-29.31,-50.97,-51.85,0,*6A
1483679014.56,54102,4.44,72146.3,-29.31,-50.97,-51.47,0,*67
1483679015.84,54103,4.44,72170.5,-29.31,-50.83,-51.47,0,*63
1483679017.11,54104,4.5,72160.5,-29.31,-50.83,-51.47,0,*64
1483679018.36,54105,4.44,72124.0,-29.31,-50.97,-51.47,0,*60
1483679019.62,54106,4.44,72136.0,-29.29,-50.67,-51.41,0,*63
1483679020.87,54107,4.44,72128.5,-29.29,-50.67,-51.41,0,*62
1483679022.1,54108,4.44,72128.3,-29.31,-50.75,-51.41,0,*67
1483679023.4,54109,4.44,72148.8,-29.29,-50.53,-51.25,0,*69
1483679024.69,54110,4.44,72128.5,-29.29,-50.33,-51.41,0,*65
1483679025.96,54111,4.44,72112.0,-29.29,-50.83,-51.41,0,*6F
1483679027.22,54112,4.5,72142.0,-29.29,-50.67,-51.19,0,*6B
1483679028.5,54113,4.44,72146.8,-29.29,-50.97,-51.47,0,*6E
1483679029.75,54114,4.44,72154.0,-29.31,-51.25,-51.69,0,*64
1483679031.03,54115,4.44,72150.0,-29.29,-51.05,-51.63,0,*64
1483679032.3,54116,4.44,72166.8,-29.29,-51.25,-51.85,0,*6D
1483679033.55,54117,4.44,72126.5,-29.29,-51.41,-51.85,0,*6E
1483679034.81,54118,4.5,72126.0,-29.31,-51.25,-51.69,0,*68
1483679036.08,54119,4.5,72156.8,-29.29,-50.97,-51.47,0,*64
1483679037.3,54120,4.44,72118.0,-29.31,-50.97,-51.41,0,*61
1483679038.55,54121,4.44,72122.8,-29.27,-51.19,-51.63,0,*60
1483679039.81,54122,4.44,72142.3,-29.29,-51.19,-51.69,0,*67
1483679041.04,54123,4.44,72116.8,-29.31,-51.19,-51.85,0,*6D
1483679042.35,54124,4.5,72134.8,-29.29,-51.47,-51.91,0,*6D
1483679043.63,54125,4.5,72134.8,-29.29,-51.41,-51.91,0,*6A
1483679044.91,54126,4.44,72138.5,-29.29,-51.25,-51.69,0,*6C
1483679046.16,54127,4.44,72146.5,-29.31,-51.47,-51.85,0,*62
1483679047.44,54128,4.44,72130.5,-29.29,-51.47,-51.85,0,*64
1483679048.72,54129,4.5,72144.5,-29.29,-51.63,-51.85,0,*63
1483679049.94,54130,4.44,72120.5,-29.31,-51.85,-52.07,0,*63
1483679051.17,54131,4.5,72140.0,-29.31,-51.41,-51.69,0,*61
1483679052.42,54132,4.44,72128.5,-29.31,-51.47,-52.07,0,*6F
1483679053.65,54133,4.44,72124.3,-29.31,-51.69,-52.07,0,*62
1483679054.9,54134,4.44,72140.0,-29.31,-51.47,-51.85,0,*60
1483679056.15,54135,4.5,72132.8,-29.29,-51.41,-51.69,0,*6C
1483679057.41,54136,4.44,72142.5,-29.31,-51.63,-51.85,0,*64
1483679058.66,54137,4.44,72130.8,-29.31,-51.41,-51.63,0,*6D
1483679059.91,54138,4.44,72128.8,-29.31,-51.63,-51.85,0,*6A
1483679061.16,54139,4.5,72118.5,-29.29,-51.41,-51.85,0,*62
1483679062.39,54140,4.44,72130.0,-29.31,-50.75,-51.41,0,*6B
1483679063.67,54141,4.44,72154.5,-29.29,-50.11,-50.97,0,*6B
1483679064.96,54142,4.44,72142.0,-29.29,-50.75,-51.25,0,*62
1483679066.21,54143,4.44,72140.0,-29.31,-50.83,-51.41,0,*61
1483679067.46,54144,4.5,72134.3,-29.31,-51.19,-51.63,0,*64
1483679068.71,54145,4.5,72162.5,-29.31,-51.05,-51.63,0,*68
1483679069.96,54146,4.44,72150.0,-29.29,-51.05,-51.69,0,*68
1483679071.24,54147,4.44,72138.8,-29.29,-51.19,-51.47,0,*68
1483679072.5,54148,4.5,72144.0,-29.31,-51.19,-51.47,0,*6E
1483679073.75,54149,4.44,72140.3,-29.31,-51.25,-51.69,0,*6C
1483679075.03,54150,4.44,72126.0,-29.29,-50.97,-51.47,0,*69
1483679076.27,54151,4.44,72136.8,-29.31,-51.05,-51.47,0,*6B
1483679077.53,54152,4.44,72142.0,-29.29,-51.19,-51.69,0,*60
1483679078.81,54153,4.5,72142.0,-29.29,-51.05,-51.63,0,*66
1483679080.08,54154,4.44,72124.8,-29.29,-51.05,-51.63,0,*61
1483679081.39,54155,4.5,72130.8,-29.29,-50.83,-51.25,0,*6D
1483679082.64,54156,4.44,72124.8,-29.29,-50.97,-51.41,0,*69
1483679083.92,54157,4.44,72134.0,-29.29,-50.83,-51.41,0,*6D
1483679085.23,54158,4.5,72134.8,-29.29,-50.83,-51.25,0,*60
1483679086.51,54159,4.44,72122.8,-29.29,-50.11,-50.75,0,*6E
1483679087.76,54160,4.44,72142.0,-29.29,-50.47,-51.19,0,*6C
1483679088.98,54161,4.44,72172.0,-29.27,-50.47,-51.05,0,*6E
1483679090.27,54162,4.5,72146.3,-29.27,-50.33,-51.25,0,*6C
1483679091.48,54163,4.44,72170.3,-29.23,-50.47,-50.97,0,*62
1483679092.73,54164,4.5,72170.3,-29.27,-50.53,-51.05,0,*6E
1483679093.99,54165,4.44,72152.5,-29.27,-50.33,-51.19,0,*64
1483679095.21,54166,4.44,72142.0,-29.23,-50.47,-51.11,0,*68
1483679096.46,54167,4.44,72138.3,-29.27,-50.53,-51.19,0,*60
1483679097.68,54168,4.44,72146.3,-29.23,-50.75,-51.19,0,*6F
1483679098.91,54169,4.44,72164.3,-29.23,-50.39,-50.89,0,*6E
1483679100.13,54170,4.44,72138.8,-29.27,-50.47,-51.19,0,*63
1483679101.39,54171,4.44,72168.0,-29.23,-50.03,-50.75,0,*6D
1483679102.63,54172,4.44,72130.0,-29.23,-50.17,-50.89,0,*68
1483679103.88,54173,4.44,72134.3,-29.23,-50.17,-50.97,0,*66
1483679105.13,54174,4.44,72124.3,-29.27,-50.25,-51.05,0,*6E
1483679106.4,54175,4.44,72136.5,-29.23,-50.25,-50.61,0,*68
1483679107.65,54176,4.44,72120.8,-29.23,-50.61,-50.67,0,*6D
1483679108.88,54177,4.5,72138.5,-29.27,-49.89,-50.47,0,*64
1483679110.14,54178,4.44,72154.0,-29.27,-49.89,-50.53,0,*6E
1483679111.37,54179,4.44,72152.8,-29.23,-50.39,-50.97,0,*60
1483679112.61,54180,4.44,72172.5,-29.23,-50.25,-50.97,0,*6B
1483679113.86,54181,4.44,72184.5,-29.23,-50.47,-51.33,0,*61
1483679115.11,54182,4.44,72134.8,-29.23,-50.67,-51.33,0,*60
1483679116.36,54183,4.5,72154.5,-29.23,-50.97,-51.33,0,*6E
1483679117.57,54184,4.44,72140.5,-29.23,-50.89,-51.19,0,*6E
1483679118.8,54185,4.44,72134.3,-29.23,-50.67,-51.11,0,*67
1483679120.05,54186,4.44,72120.0,-29.21,-50.67,-51.19,0,*6E
1483679121.3,54187,4.44,72132.8,-29.23,-50.75,-51.33,0,*66
1483679122.56,54188,4.44,72120.0,-29.23,-50.39,-51.33,0,*61
1483679123.78,54189,4.44,72114.0,-29.23,-50.47,-50.97,0,*66
1483679125.03,54190,4.44,72134.5,-29.23,-50.17,-50.97,0,*6B
1483679126.27,54191,4.44,72124.5,-29.23,-50.25,-51.11,0,*64
1483679127.52,54192,4.44,72116.8,-29.23,-50.25,-51.11,0,*67
1483679128.76,54193,4.44,72132.3,-29.21,-50.47,-51.19,0,*68
1483679130.02,54194,4.44,72124.8,-29.21,-50.39,-51.11,0,*6E
1483679131.26,54195,4.44,72134.8,-29.21,-50.47,-51.11,0,*66
1483679132.5,54196,4.5,72134.0,-29.21,-50.47,-50.89,0,*65
1483679133.75,54197,4.5,72144.0,-29.21,-50.39,-51.19,0,*65
1483679135.0,54198,4.44,72134.5,-29.21,-50.47,-51.19,0,*63
1483679136.27,54199,4.44,72138.5,-29.21,-50.67,-51.33,0,*68
1483679137.54,54200,4.44,72142.8,-29.19,-50.25,-50.83,0,*6C
1483679138.77,54201,4.44,72150.5,-29.19,-50.67,-51.11,0,*61
1483679140.02,54202,4.44,72160.0,-29.19,-50.61,-50.89,0,*64
1483679141.25,54203,4.5,72160.5,-29.19,-50.39,-51.05,0,*6D
1483679142.52,54204,4.44,72164.0,-29.19,-50.17,-50.83,0,*69
1483679143.77,54205,4.44,72150.5,-29.19,-50.53,-51.11,0,*62
1483679145.01,54206,4.44,72160.8,-29.21,-50.47,-51.11,0,*6F
1483679146.29,54207,4.44,72152.8,-29.19,-50.61,-51.25,0,*66
1483679147.57,54208,4.5,72178.3,-29.21,-50.89,-51.25,0,*64
1483679148.8,54209,4.44,72160.5,-29.21,-50.89,-51.41,0,*67
1483679150.05,54210,4.44,72154.3,-29.19,-50.89,-51.33,0,*61
1483679151.32,54211,4.44,72148.8,-29.21,-51.11,-51.55,0,*6B
1483679152.59,54212,4.44,72164.8,-29.21,-51.11,-51.63,0,*6D
1483679153.88,54213,4.5,72162.5,-29.21,-51.33,-51.63,0,*6C
1483679155.13,54214,4.5,72156.5,-29.21,-51.19,-51.77,0,*66
1483679156.38,54215,4.44,72162.0,-29.21,-51.19,-51.85,0,*6A
1483679157.62,54216,4.44,72160.3,-29.21,-51.11,-51.77,0,*6C
1483679158.89,54217,4.44,72156.0,-29.21,-50.97,-51.63,0,*67
1483679160.13,54218,4.44,72168.8,-29.21,-50.97,-51.77,0,*6D
1483679161.4,54219,4.44,72148.0,-29.21,-50.97,-51.63,0,*69
1483679162.67,54220,4.44,72148.0,-29.21,-51.11,-51.63,0,*6C
1483679163.92,54221,4.44,72164.0,-29.23,-51.11,-51.63,0,*6F
1483679165.19,54222,4.44,72130.3,-29.21,-51.11,-51.55,0,*6B
1483679166.4,54223,4.44,72150.8,-29.23,-50.97,-51.41,0,*62
1483679167.62,54224,4.44,72168.3,-29.27,-51.05,-51.85,0,*63
1483679168.87,54225,4.44,72136.8,-29.23,-51.11,-51.63,0,*6B
1483679170.12,54226,4.44,72150.3,-29.23,-50.89,-51.33,0,*6D
1483679171.36,54227,4.44,72162.8,-29.23,-51.11,-51.63,0,*69
1483679172.59,54228,4.44,72104.3,-29.23,-51.19,-51.77,0,*6B
1483679173.83,54229,4.44,72150.5,-29.23,-50.89,-51.33,0,*62
1483679175.11,54230,4.5,72136.5,-29.27,-50.61,-51.33,0,*68
1483679176.37,54231,4.44,72154.3,-29.23,-50.67,-51.33,0,*6B
1483679177.59,54232,4.44,72170.0,-29.23,-50.47,-51.11,0,*6A
1483679178.84,54233,4.44,72178.3,-29.23,-50.67,-51.33,0,*69
1483679180.11,54234,4.44,72132.8,-29.23,-50.53,-51.47,0,*6A
1483679181.33,54235,4.44,72134.0,-29.23,-50.89,-51.41,0,*6A
1483679182.54,54236,4.44,72124.0,-29.23,-50.97,-51.41,0,*66
1483679183.76,54237,4.44,72144.5,-29.23,-50.75,-51.41,0,*6B
1483679184.99,54238,4.44,72128.5,-29.23,-50.75,-51.41,0,*64
1483679186.23,54239,4.44,72156.8,-29.27,-50.97,-51.47,0,*6B
1483679187.47,54240,4.44,72148.0,-29.23,-50.89,-51.63,0,*68
1483679188.72,54241,4.44,72152.8,-29.23,-50.97,-51.47,0,*60
1483679189.95,54242,4.44,72134.3,-29.23,-50.89,-51.55,0,*6F
1483679191.17,54243,4.44,72132.5,-29.23,-50.89,-51.41,0,*6B
1483679192.38,54244,4.44,72160.5,-29.23,-50.89,-51.41,0,*6C
1483679193.62,54245,4.44,72124.0,-29.23,-50.97,-51.55,0,*67
1483679194.83,54246,4.44,72170.0,-29.23,-50.97,-51.41,0,*61
1483679196.05,54247,4.44,72136.0,-29.23,-50.89,-51.41,0,*6F
1483679197.26,54248,4.44,72144.8,-29.23,-50.97,-51.41,0,*6F
1483679198.49,54249,4.44,72134.0,-29.27,-51.41,-51.69,0,*6A
1483679199.74,54250,4.5,72160.8,-29.27,-51.05,-51.63,0,*68
1483679200.95,54251,4.44,72148.5,-29.23,-50.97,-51.41,0,*67
1483679202.2,54252,4.44,72150.8,-29.23,-51.11,-51.55,0,*6E
1483679203.44,54253,4.44,72146.8,-29.23,-50.97,-51.63,0,*65
1483679204.67,54254,4.44,72138.3,-29.27,-51.19,-51.85,0,*69
1483679205.89,54255,4.5,72152.0,-29.23,-50.75,-51.41,0,*6F
1483679207.13,54256,4.44,72152.5,-29.23,-50.89,-51.55,0,*6A
1483679208.37,54257,4.44,72138.0,-29.27,-50.97,-51.47,0,*63
1483679209.6,54258,4.44,72146.3,-29.27,-51.19,-51.69,0,*67
1483679210.85,54259,4.44,72150.5,-29.23,-50.97,-51.63,0,*6F
1483679212.09,54260,4.5,72148.5,-29.23,-50.97,-51.55,0,*60
1483679213.32,54261,4.44,72156.8,-29.23,-50.97,-51.55,0,*61
1483679214.57,54262,4.44,72124.0,-29.27,-50.97,-51.47,0,*65
1483679215.82,54263,4.44,72156.0,-29.27,-50.97,-51.47,0,*64
1483679217.09,54264,4.44,72124.0,-29.27,-50.83,-51.63,0,*60
1483679218.34,54265,4.44,72148.0,-29.27,-50.97,-51.47,0,*62
1483679219.59,54266,4.44,72144.5,-29.27,-51.19,-51.63,0,*60
1483679220.84,54267,4.44,72150.5,-29.27,-51.05,-51.63,0,*6C
1483679222.07,54268,4.44,72150.3,-29.27,-51.05,-51.69,0,*69
1483679223.3,54269,4.44,72146.8,-29.27,-51.19,-51.69,0,*65
1483679224.55,54270,4.44,72146.0,-29.27,-50.97,-51.47,0,*66
1483679225.82,54271,4.44,72152.5,-29.27,-50.83,-51.47,0,*62
1483679227.08,54272,4.44,72150.8,-29.27,-50.75,-51.47,0,*68
1483679228.35,54273,4.44,72150.8,-29.27,-50.83,-51.47,0,*60
1483679229.61,54274,4.44,72136.5,-29.27,-50.83,-51.41,0,*61
1483679230.83,54275,4.44,72116.0,-29.27,-50.75,-51.19,0,*64
1483679232.09,54276,4.44,72138.5,-29.23,-50.75,-51.25,0,*6C
1483679233.33,54277,4.44,72116.8,-29.27,-50.89,-51.55,0,*6D
1483679234.58,54278,4.44,72124.3,-29.27,-50.97,-51.63,0,*68
1483679235.8,54279,4.44,72110.5,-29.27,-50.89,-51.41,0,*66
1483679237.07,54280,4.44,72118.0,-29.27,-50.83,-51.47,0,*6C
1483679238.32,54281,4.44,72130.3,-29.27,-50.97,-51.47,0,*68
1483679239.56,54282,4.44,72124.5,-29.23,-50.89,-51.33,0,*63
1483679240.78,54283,4.44,72134.0,-29.27,-50.97,-51.41,0,*6C
1483679242.03,54284,4.44,72136.0,-29.27,-50.97,-51.47,0,*6D
1483679243.28,54285,4.44,72144.5,-29.27,-50.75,-51.47,0,*60
1483679244.54,54286,4.44,72156.5,-29.27,-50.75,-51.25,0,*67
1483679245.76,54287,4.5,72158.5,-29.27,-50.97,-51.41,0,*68
1483679247.01,54288,4.44,72172.3,-29.27,-50.83,-51.41,0,*62
1483679248.24,54289,4.44,72166.8,-29.27,-50.75,-51.41,0,*6A
1483679249.46,54290,4.44,72158.3,-29.23,-50.75,-51.19,0,*6B
1483679250.69,54291,4.44,72172.8,-29.27,-50.75,-51.41,0,*63
1483679251.94,54292,4.44,72172.5,-29.23,-50.61,-51.11,0,*64
1483679253.2,54293,4.44,72164.3,-29.27,-50.75,-51.25,0,*63
1483679254.48,54294,4.44,72154.5,-29.27,-50.83,-51.25,0,*6D
1483679255.73,54295,4.44,72134.0,-29.27,-50.61,-51.41,0,*62
1483679256.96,54296,4.44,72146.5,-29.27,-50.89,-51.11,0,*62
1483679258.2,54297,4.44,72164.8,-29.27,-50.53,-51.05,0,*61
1483679259.48,54298,4.44,72150.5,-29.23,-50.17,-50.61,0,*69
1483679260.73,54299,4.44,72132.8,-29.27,-50.39,-50.61,0,*60
1483679262.01,54300,4.44,72148.0,-29.27,-50.17,-50.53,0,*6C
1483679263.23,54301,4.44,72136.3,-29.27,-50.47,-50.97,0,*60
1483679264.46,54302,4.44,72136.8,-29.23,-50.39,-51.11,0,*61
1483679265.71,54303,4.44,72128.0,-29.27,-50.83,-51.41,0,*60
1483679266.96,54304,4.44,72126.3,-29.23,-50.89,-51.33,0,*6C
1483679268.21,54305,4.5,72148.3,-29.23,-50.75,-51.33,0,*6E
1483679269.46,54306,4.44,72140.5,-29.23,-50.61,-51.19,0,*60
1483679270.69,54307,4.44,72144.3,-29.23,-50.67,-51.41,0,*6A
1483679271.9,54308,4.44,72142.5,-29.23,-50.89,-51.41,0,*65
1483679273.15,54309,4.44,72130.8,-29.23,-50.61,-51.19,0,*6F
1483679274.4,54310,4.44,72132.0,-29.23,-50.61,-51.11,0,*6F
1483679275.65,54311,4.44,72128.3,-29.23,-50.17,-50.97,0,*60
1483679276.87,54312,4.44,72128.8,-29.23,-50.47,-51.19,0,*61
1483679278.09,54313,4.44,72126.0,-29.23,-50.47,-51.19,0,*60
1483679279.32,54314,4.44,72156.0,-29.23,-49.97,-50.75,0,*69
1483679280.57,54315,4.44,72116.5,-29.21,-50.67,-51.19,0,*66
1483679281.79,54316,4.5,72114.8,-29.23,-50.75,-50.97,0,*63
1483679283.04,54317,4.44,72132.5,-29.19,-50.53,-51.05,0,*65
1483679284.29,54318,4.44,72136.0,-29.19,-50.33,-51.11,0,*69
1483679285.56,54319,4.44,72130.5,-29.21,-50.25,-50.97,0,*6B
1483679286.86,54320,4.44,72126.0,-29.21,-50.61,-51.33,0,*6E
1483679288.14,54321,4.44,72126.3,-29.21,-50.61,-50.97,0,*60
1483679289.39,54322,4.44,72112.5,-29.21,-50.67,-51.19,0,*62
1483679290.64,54323,4.44,72114.3,-29.21,-50.67,-51.19,0,*63
1483679291.91,54324,4.44,72114.5,-29.21,-50.89,-51.33,0,*6C
1483679293.16,54325,4.44,72116.8,-29.21,-50.75,-51.41,0,*6B
1483679294.43,54326,4.44,72106.3,-29.21,-50.47,-51.33,0,*6C
1483679295.68,54327,4.44,72110.3,-29.19,-50.33,-51.11,0,*65
1483679296.96,54328,4.44,72116.3,-29.21,-50.39,-51.33,0,*6B
1483679298.24,54329,4.44,72126.8,-29.19,-50.17,-51.25,0,*6A
1483679299.52,54330,4.44,72128.0,-29.19,-50.61,-51.25,0,*63
1483679300.77,54331,4.44,72130.8,-29.19,-50.89,-51.47,0,*60
1483679302.04,54332,4.44,72130.3,-29.19,-50.83,-51.47,0,*69
1483679303.29,54333,4.44,72134.3,-29.21,-51.19,-51.85,0,*6F